EW2812 Weather Reports


time (UTC)temp
C
wind
direction
speed
KPH
gust
KPH
rain 1hr
cm
rain 24hr
cm
rain mn
cm
humidity
%
barometer
mb
20260505223036 -17 351 0.0 0.0 0.00 0.00 0.00 1012.2
20260505221529 -17 346 0.0 0.0 0.00 0.00 0.00 1012.2
20260505220027 -17 55 0.0 0.0 0.00 0.00 0.00 1012.2
20260505214517 -17 60 0.0 0.0 0.00 0.00 0.00 1012.1
20260505213020 -17 60 0.0 0.0 0.00 0.00 0.00 1012.1
20260505211508 -17 60 0.0 0.0 0.00 0.00 0.00 1012.1
20260505210004 -17 60 0.0 0.0 0.00 0.00 0.00 1012.1
20260505204505 -17 60 0.0 0.0 0.00 0.00 0.00 1012.1
20260505203001 -17 60 0.0 0.0 0.00 0.00 0.00 1012.1
20260505201559 -17 60 0.0 0.0 0.00 0.00 0.00 1012.0
20260505200053 -17 59 0.0 0.0 0.00 0.00 0.00 1011.8
20260505194556 -17 48 0.0 0.0 0.00 0.00 0.00 1011.6
20260505193053 -17 9 0.0 0.0 0.00 0.00 0.00 1011.4
20260505191601 -17 5 0.0 0.0 0.00 0.00 0.00 1011.4
20260505190054 -17 5 0.0 0.0 0.00 0.00 0.00 1011.4
20260505184542 -17 5 0.0 0.0 0.00 0.00 0.00 1011.2
20260505183047 -17 338 0.0 0.0 0.00 0.00 0.00 1011.2
20260505181533 -17 336 0.0 0.0 0.00 0.00 0.00 1011.1
20260505180024 -17 26 0.0 0.0 0.00 0.00 0.00 1011.1
20260505174511 -17 50 0.0 0.0 0.00 0.00 0.00 1011.0
20260505173006 -17 82 0.0 0.0 0.00 0.00 0.00 1010.9
20260505171502 -17 57 0.0 0.0 0.00 0.00 0.00 1011.0
20260505170058 -17 76 0.0 0.0 0.00 0.00 0.00 1011.1
20260505164503 -17 16 0.0 0.0 0.00 0.00 0.00 1011.1
20260505163058 -17 28 0.0 0.0 0.00 0.00 0.00 1011.1
20260505161616 -17 57 0.0 0.0 0.00 0.00 0.00 1011.1
20260505153039 -17 82 0.0 0.0 0.00 0.00 0.00 1011.3
20260505151536 -17 147 0.0 0.0 0.00 0.00 0.00 1011.3
20260505124558 -17 17 0.0 0.0 0.00 0.00 0.00 1011.9
20260505123054 -17 349 0.0 0.0 0.00 0.00 0.00 1011.9
20260505121550 -17 38 0.0 0.0 0.00 0.00 0.00 1011.9
20260505120104 -17 340 0.0 0.0 0.00 0.00 0.00 1011.9
20260505114538 -17 76 0.0 0.0 0.00 0.00 0.00 1011.9
20260505113042 -17 69 0.0 0.0 0.00 0.00 0.00 1012.0
20260505111530 -17 10 0.0 0.0 0.00 0.00 0.00 1012.1
20260505101524 -17 91 0.0 0.0 0.00 0.00 0.00 1012.4
20260505100022 -17 51 0.0 0.0 0.00 0.00 0.00 1012.4
20260505094513 -17 9 0.0 0.0 0.00 0.00 0.00 1012.4
20260505093008 -17 19 0.0 0.0 0.00 0.00 0.00 1012.5
20260505091513 -17 326 0.0 0.0 0.00 0.00 0.00 1012.5
20260505090100 -17 288 0.0 0.0 0.00 0.00 0.00 1012.5
20260505084554 -17 11 0.0 0.0 0.00 0.00 0.00 1012.6
20260505083051 -17 17 0.0 0.0 0.00 0.00 0.00 1012.6
20260505081546 -17 26 0.0 0.0 0.00 0.00 0.00 1012.6
20260505080041 -17 360 0.0 0.0 0.00 0.00 0.00 1012.6
20260505074541 -17 360 0.0 0.0 0.00 0.00 0.00 1012.6
20260505073054 -17 14 0.0 0.0 0.00 0.00 0.00 1012.6
20260505071531 -17 348 0.0 0.0 0.00 0.00 0.00 1012.6
20260505070028 -17 350 0.0 0.0 0.00 0.00 0.00 1012.6
20260505064535 -17 350 0.0 0.0 0.00 0.00 0.00 1012.6
20260505063017 -17 59 0.0 0.0 0.00 0.00 0.00 1012.7
20260505061527 -17 347 0.0 0.0 0.00 0.00 0.00 1012.6
20260505060008 -17 348 0.0 0.0 0.00 0.00 0.00 1012.8
20260505054505 -17 350 0.0 0.0 0.00 0.00 0.00 1012.7
20260505053114 -17 17 0.0 0.0 0.00 0.00 0.00 1012.8
20260505051556 -17 44 0.0 0.0 0.00 0.00 0.00 1012.8
20260505041555 -17 53 0.0 0.0 0.00 0.00 0.00 1012.7
20260505040043 -17 69 0.0 0.0 0.00 0.00 0.00 1012.7
20260505034533 -17 69 0.0 0.0 0.00 0.00 0.00 1012.7
20260505033029 -17 69 0.0 0.0 0.00 0.00 0.00 1012.9
20260505031540 -17 69 0.0 0.0 0.00 0.00 0.00 1012.9
20260505030026 -17 69 0.0 0.0 0.00 0.00 0.00 1013.0
20260505024531 -17 66 0.0 0.0 0.00 0.00 0.00 1013.3
20260505023014 -17 46 0.0 0.0 0.00 0.00 0.00 1013.3
20260505021516 -17 29 0.0 0.0 0.00 0.00 0.00 1013.3
20260505020015 -17 22 0.0 0.0 0.00 0.00 0.00 1013.3
20260505014504 -17 63 0.0 0.0 0.00 0.00 0.00 1013.4
20260505013110 -17 16 0.0 0.0 0.00 0.00 0.00 1013.5
20260505011556 -17 82 0.0 0.0 0.00 0.00 0.00 1013.5
20260505010052 -17 45 0.0 0.0 0.00 0.00 0.00 1013.8
20260505004557 -17 65 0.0 0.0 0.00 0.00 0.00 1013.9
20260505003049 -17 65 0.0 0.0 0.00 0.00 0.00 1013.9
20260505001550 -17 46 0.0 0.0 0.00 0.00 0.00 1013.8
20260505000057 -17 98 0.0 0.0 0.00 0.00 0.00 1014.0
20260504234533 -17 80 0.0 0.0 0.00 0.00 0.00 1014.1
20260504233030 -17 80 0.0 0.0 0.00 0.00 0.00 1014.2
20260504231525 -17 33 0.0 0.0 0.00 0.00 0.00 1014.3
20260504230021 -17 76 0.0 0.0 0.00 0.00 0.00 1014.3
20260504224524 -17 88 0.0 0.0 0.00 0.00 0.00 1014.2